{"data":{"norad_id":66863,"intl_designator":"2025-281R","name":"STARLINK-36134","alt_names":[],"object_type":"PAYLOAD","status":"ACTIVE","operator":null,"country":"US","launch_date":"2025-12-02","launch_site_code":"AFETR","launch_vehicle":null,"mission":null,"orbit_class":"UNKNOWN","rcs_meters":null,"size_class":null,"mass_kg":null,"dimensions":null,"purposes":["comms"],"wikipedia_slug":null,"has_3d_model":false,"image_url":null,"decayed_at":null,"tle_current":{"epoch":"2026-09-20T21:19:55.150464Z","epoch_age_seconds":50556,"freshness":"FRESH","line1":"1 66863U 25281R   26263.88883276  .00012706  00000+0  47033-3 0  9991","line2":"2 66863  43.0033 320.6606 0001859 275.6884  84.3755 15.27589589 46045","mean_motion":15.27589589,"eccentricity":0.0001859,"inclination_deg":43.0033,"raan_deg":320.6606,"arg_perigee_deg":275.6884,"mean_anomaly_deg":84.3755,"bstar":0.00047033,"rev_number":4604,"period_min":94.266156981514,"perigee_km":481.74489411668,"apogee_km":484.29587243178,"semimajor_km":6861.1573832742,"source":"CELESTRAK","updated_at":"2026-09-21T09:00:36.028854Z"}}}